User: anonymous   Login
Location: Unspecified
(0.0000°N, 0.0000°E)
Time: 19:30:22
(UTC+00:00)
Language:

Kosmos-2142 - Orbit

View from above orbital plane
View from above orbital plane
View from above satellite
View from above satellite

Ground track
Ground track

The orbit data is extracted from the following two-line orbital elements,

1 21230U 91029A   18018.90263899 +.00000009 +00000-0 -70590-5 0  9999
2 21230 082.9565 342.8798 0039288 111.6934 263.0903 13.73116186341087
Epoch (UTC): 18 January 2018 21:39:48
Eccentricity: 0.0039288
inclination: 82.9565°
perigee height: 959 km
apogee height: 1017 km
right ascension of ascending node: 342.8798°
argument of perigee: 111.6934°
revolutions per day: 13.73116186
mean anomaly at epoch: 263.0903°
orbit number at epoch: 34108

The dashed part of the orbit path shows where the satellite is in the earth's shadow,  

DLR